CFG4HW EDDH-LEJR

Flight info

Callsign CFG4HW
Flight time N/A
Altitude 32000
Route HABFU1G HABFU Y348 DOMEG DCT MHD DCT ASPIX DCT FAMEN/N0463F310 DCT CTL DCT ODEBU DCT ARMAL DCT ARTAX DCT LIBRU/N0461F330 DCT NETUK N857 NOLSA N10 BAN N857 HIJ
Aircraft B753/M-SDE2E3FGHIJ3J4J7RWXY/LB1

Departure

Time 2026-05-04 12:53
Airport Hamburg Helmut Schmidt Airport (EDDH)

Arrival

Time N/A
Airport Jerez Airport (LEJR)
Time Latitude Longitude Altitude Speed Heading
2026-05-04 12:35 53.63322 10.00372 65 ft 0 kts 86°
2026-05-04 12:36 53.63233 10.00369 65 ft 0 kts 85°
2026-05-04 12:44 53.63232 10.00335 65 ft 13 kts 85°
2026-05-04 12:44 53.63230 10.00296 65 ft 13 kts 85°
2026-05-04 12:44 53.63230 10.00270 65 ft 13 kts 111°
2026-05-04 12:44 53.63249 10.00254 65 ft 13 kts 183°
2026-05-04 12:45 53.63272 10.00261 65 ft 13 kts 189°
2026-05-04 12:45 53.63294 10.00263 65 ft 0 kts 174°
2026-05-04 12:47 53.63291 10.00264 65 ft 1 kts 174°
2026-05-04 12:47 53.63267 10.00266 65 ft 6 kts 177°
2026-05-04 12:48 53.63211 10.00271 65 ft 10 kts 178°
2026-05-04 12:48 53.63130 10.00265 65 ft 11 kts 191°
2026-05-04 12:48 53.63068 10.00219 65 ft 9 kts 211°
2026-05-04 12:48 53.63025 10.00175 65 ft 6 kts 211°
2026-05-04 12:49 53.62980 10.00128 65 ft 10 kts 211°
2026-05-04 12:49 53.62919 10.00066 65 ft 10 kts 207°
2026-05-04 12:49 53.62847 10.00068 65 ft 11 kts 158°
2026-05-04 12:49 53.62776 10.00129 65 ft 10 kts 153°
2026-05-04 12:50 53.62714 10.00180 65 ft 9 kts 154°
2026-05-04 12:50 53.62667 10.00220 65 ft 6 kts 154°
2026-05-04 12:50 53.62622 10.00255 65 ft 7 kts 158°
2026-05-04 12:50 53.62587 10.00247 65 ft 5 kts 221°
2026-05-04 12:51 53.62564 10.00193 65 ft 7 kts 243°
2026-05-04 12:51 53.62545 10.00131 65 ft 6 kts 243°
2026-05-04 12:51 53.62529 10.00073 65 ft 5 kts 253°
2026-05-04 12:51 53.62536 10.00030 65 ft 4 kts 308°
2026-05-04 12:52 53.62551 10.00015 65 ft 1 kts 333°
2026-05-04 12:52 53.62552 10.00013 65 ft 0 kts 333°
2026-05-04 12:52 53.62561 10.00006 65 ft 4 kts 333°
2026-05-04 12:53 53.62726 9.99863 65 ft 57 kts 333°
2026-05-04 12:53 53.63286 9.99379 65 ft 122 kts 333°
2026-05-04 12:53 53.64169 9.98619 312 ft 148 kts 333°
2026-05-04 12:53 53.65092 9.97833 1002 ft 151 kts 334°
2026-05-04 12:54 53.66043 9.97008 1574 ft 156 kts 334°
2026-05-04 12:54 53.67031 9.96145 1912 ft 163 kts 333°
2026-05-04 12:54 53.68053 9.95242 2191 ft 171 kts 333°
2026-05-04 12:54 53.69149 9.94306 2459 ft 182 kts 333°
2026-05-04 12:55 53.70322 9.93249 2701 ft 200 kts 326°
2026-05-04 12:55 53.71190 9.91325 2969 ft 223 kts 292°
2026-05-04 12:55 53.71332 9.88621 3477 ft 240 kts 266°
2026-05-04 12:55 53.70965 9.85829 4163 ft 249 kts 256°
2026-05-04 12:56 53.70404 9.82983 4749 ft 262 kts 253°
2026-05-04 12:56 53.69753 9.80064 5520 ft 264 kts 248°
2026-05-04 12:56 53.68661 9.77614 6481 ft 263 kts 222°
2026-05-04 12:56 53.67069 9.76182 7322 ft 266 kts 204°
2026-05-04 12:57 53.65277 9.75252 7965 ft 273 kts 199°
2026-05-04 12:57 53.63434 9.74366 8574 ft 278 kts 200°
2026-05-04 12:57 53.61593 9.73340 9234 ft 280 kts 204°
2026-05-04 12:57 53.59932 9.72253 9822 ft 282 kts 206°
2026-05-04 12:58 53.58124 9.70916 10395 ft 287 kts 208°
2026-05-04 12:58 53.56277 9.69431 10732 ft 301 kts 210°
2026-05-04 12:58 53.54358 9.67810 11042 ft 315 kts 210°
2026-05-04 12:58 53.52360 9.66090 11332 ft 330 kts 210°
2026-05-04 12:59 53.50273 9.64281 11593 ft 345 kts 210°
2026-05-04 12:59 53.48095 9.62389 11909 ft 357 kts 210°
2026-05-04 12:59 53.46066 9.60630 12445 ft 360 kts 211°
2026-05-04 12:59 53.43826 9.58674 13006 ft 364 kts 211°
2026-05-04 13:00 53.41605 9.56726 13657 ft 366 kts 211°
2026-05-04 13:00 53.39329 9.54731 14350 ft 367 kts 211°
2026-05-04 13:00 53.37058 9.52769 15094 ft 367 kts 211°
2026-05-04 13:00 53.34780 9.50820 15713 ft 369 kts 211°
2026-05-04 13:01 53.32554 9.48905 16264 ft 372 kts 211°
2026-05-04 13:01 53.30374 9.47032 16772 ft 375 kts 211°
2026-05-04 13:01 53.28042 9.45041 17292 ft 378 kts 212°
2026-05-04 13:01 53.25689 9.43036 17787 ft 381 kts 212°
2026-05-04 13:02 53.23343 9.41020 18240 ft 386 kts 212°
2026-05-04 13:02 53.20949 9.38952 18737 ft 389 kts 211°
2026-05-04 13:02 53.18538 9.36893 19315 ft 390 kts 211°
2026-05-04 13:02 53.16114 9.34840 19886 ft 391 kts 212°
2026-05-04 13:03 53.13677 9.32771 20314 ft 395 kts 212°
2026-05-04 13:03 53.11191 9.30661 20650 ft 401 kts 212°
2026-05-04 13:03 53.08722 9.28571 21049 ft 405 kts 212°
2026-05-04 13:03 53.06206 9.26443 21545 ft 405 kts 211°
2026-05-04 13:04 53.03702 9.24329 22178 ft 402 kts 210°
2026-05-04 13:04 53.01226 9.22232 22878 ft 397 kts 211°
2026-05-04 13:04 52.98775 9.20140 23466 ft 395 kts 211°
2026-05-04 13:04 52.96330 9.18047 23939 ft 397 kts 211°
2026-05-04 13:05 52.93857 9.15929 24310 ft 401 kts 211°
2026-05-04 13:05 52.91365 9.13764 24681 ft 405 kts 212°
2026-05-04 13:05 52.88871 9.11572 25110 ft 407 kts 212°
2026-05-04 13:05 52.86365 9.09362 25536 ft 409 kts 212°
2026-05-04 13:06 52.83850 9.07145 25956 ft 411 kts 212°
2026-05-04 13:06 52.81350 9.04948 26363 ft 412 kts 212°
2026-05-04 13:06 52.78819 9.02735 26759 ft 414 kts 212°
2026-05-04 13:06 52.76242 9.00494 27127 ft 417 kts 212°
2026-05-04 13:07 52.73666 8.98259 27435 ft 420 kts 212°
2026-05-04 13:07 52.71066 8.96005 27693 ft 425 kts 212°
2026-05-04 13:07 52.68430 8.93713 27951 ft 430 kts 212°
2026-05-04 13:07 52.65770 8.91403 28302 ft 433 kts 212°
2026-05-04 13:08 52.63102 8.89095 28720 ft 434 kts 213°
2026-05-04 13:08 52.60428 8.86777 29142 ft 434 kts 213°
2026-05-04 13:08 52.57754 8.84450 29497 ft 436 kts 213°
2026-05-04 13:08 52.55057 8.82107 29825 ft 439 kts 213°
2026-05-04 13:09 52.52346 8.79770 30160 ft 441 kts 213°
2026-05-04 13:09 52.49625 8.77427 30581 ft 440 kts 212°
2026-05-04 13:09 52.46950 8.75143 31100 ft 437 kts 212°
2026-05-04 13:09 52.44270 8.72861 31569 ft 435 kts 211°
2026-05-04 13:10 52.41571 8.70558 31805 ft 437 kts 212°
2026-05-04 13:10 52.38874 8.68239 31925 ft 438 kts 211°
2026-05-04 13:10 52.36173 8.65933 31975 ft 437 kts 211°
2026-05-04 13:11 52.30817 8.61393 31979 ft 434 kts 211°
2026-05-04 13:11 52.25797 8.56084 31984 ft 426 kts 221°
2026-05-04 13:12 52.21645 8.49269 31986 ft 422 kts 230°
2026-05-04 13:12 52.19779 8.45627 31898 ft 411 kts 232°
2026-05-04 13:12 52.18004 8.42086 31753 ft 394 kts 231°
2026-05-04 13:12 52.16289 8.38735 31863 ft 378 kts 231°
2026-05-04 13:13 52.14581 8.35516 31952 ft 377 kts 230°
2026-05-04 13:13 52.12815 8.32281 31996 ft 389 kts 229°
2026-05-04 13:13 52.10986 8.28930 32001 ft 402 kts 231°
2026-05-04 13:13 52.09188 8.25348 32001 ft 413 kts 233°
2026-05-04 13:14 52.07448 8.21662 31998 ft 417 kts 233°
2026-05-04 13:14 52.03999 8.14083 31993 ft 417 kts 234°
2026-05-04 13:15 52.00519 8.06534 31991 ft 417 kts 233°
2026-05-04 13:15 51.96963 7.99071 31990 ft 419 kts 233°
2026-05-04 13:16 51.93392 7.91662 31992 ft 419 kts 233°
2026-05-04 13:16 51.89818 7.84214 31992 ft 418 kts 233°
2026-05-04 13:17 51.86255 7.76758 31989 ft 417 kts 233°
2026-05-04 13:17 51.82706 7.69371 31983 ft 418 kts 233°
2026-05-04 13:18 51.79129 7.61945 31981 ft 418 kts 233°
2026-05-04 13:18 51.75554 7.54518 31977 ft 418 kts 232°
2026-05-04 13:19 51.71953 7.47134 31985 ft 418 kts 232°
2026-05-04 13:19 51.68348 7.39756 31992 ft 418 kts 232°
2026-05-04 13:20 51.64771 7.32436 31988 ft 419 kts 232°
2026-05-04 13:20 51.61155 7.25051 31989 ft 419 kts 231°
2026-05-04 13:21 51.57546 7.17677 31993 ft 420 kts 232°
2026-05-04 13:21 51.53944 7.10319 31993 ft 420 kts 232°
2026-05-04 13:22 51.50331 7.02953 31993 ft 420 kts 231°
2026-05-04 13:22 51.46685 6.95599 31993 ft 420 kts 231°
2026-05-04 13:23 51.43045 6.88267 31993 ft 420 kts 231°
2026-05-04 13:23 51.39418 6.80993 31993 ft 420 kts 231°
2026-05-04 13:24 51.35753 6.73695 31993 ft 420 kts 231°
2026-05-04 13:24 51.32093 6.66394 31993 ft 421 kts 231°
2026-05-04 13:25 51.26606 6.55474 31993 ft 421 kts 231°
2026-05-04 13:25 51.22815 6.48330 31993 ft 422 kts 227°
2026-05-04 13:26 51.18622 6.41742 31995 ft 423 kts 223°
2026-05-04 13:26 51.14211 6.35502 31993 ft 423 kts 223°
2026-05-04 13:27 51.09828 6.29345 31993 ft 421 kts 224°
2026-05-04 13:27 51.05490 6.23117 31993 ft 419 kts 225°
2026-05-04 13:28 51.01204 6.16859 31993 ft 418 kts 225°
2026-05-04 13:28 50.96930 6.10621 31993 ft 417 kts 226°
2026-05-04 13:29 50.92636 6.04419 31993 ft 417 kts 225°
2026-05-04 13:29 50.88341 5.98259 31993 ft 416 kts 225°
2026-05-04 13:30 50.84040 5.92114 31993 ft 416 kts 225°
2026-05-04 13:30 50.79764 5.86022 31993 ft 416 kts 225°
2026-05-04 13:31 50.75460 5.79902 31993 ft 416 kts 225°
2026-05-04 13:31 50.71148 5.73781 31993 ft 416 kts 225°
2026-05-04 13:32 50.66838 5.67671 31993 ft 416 kts 225°
2026-05-04 13:32 50.62553 5.61607 31993 ft 416 kts 225°
2026-05-04 13:33 50.58238 5.55514 31993 ft 416 kts 225°
2026-05-04 13:33 50.53925 5.49429 31993 ft 416 kts 225°
2026-05-04 13:34 50.50340 5.44361 31993 ft 416 kts 226°
2026-05-04 13:34 50.45541 5.36971 31994 ft 415 kts 229°
2026-05-04 13:35 50.40352 5.28099 31993 ft 414 kts 230°
2026-05-04 13:36 50.36468 5.21429 31993 ft 414 kts 230°
2026-05-04 13:36 50.32529 5.14826 31976 ft 415 kts 236°
2026-05-04 13:36 50.30551 5.11517 32004 ft 421 kts 225°
2026-05-04 13:37 50.28522 5.08147 32007 ft 428 kts 225°
2026-05-04 13:37 50.24436 5.01325 32010 ft 430 kts 225°
2026-05-04 13:38 50.20349 4.94482 32014 ft 431 kts 225°
2026-05-04 13:38 50.16256 4.87630 32001 ft 431 kts 225°
2026-05-04 13:39 50.12166 4.80868 31995 ft 432 kts 224°
2026-05-04 13:39 50.08036 4.74050 31810 ft 434 kts 226°
2026-05-04 13:39 50.05943 4.70590 31571 ft 432 kts 226°
2026-05-04 13:40 50.03918 4.67245 31326 ft 428 kts 225°
2026-05-04 13:40 50.01879 4.63912 31144 ft 422 kts 225°
2026-05-04 13:40 49.99858 4.60620 31037 ft 417 kts 225°
2026-05-04 13:41 49.95704 4.54437 30991 ft 412 kts 221°
2026-05-04 13:41 49.91239 4.48895 30996 ft 410 kts 220°
2026-05-04 13:42 49.84397 4.41012 30993 ft 407 kts 219°
2026-05-04 13:42 49.79890 4.35672 30995 ft 417 kts 220°
2026-05-04 13:43 49.75235 4.30084 30994 ft 428 kts 222°
2026-05-04 13:43 49.70486 4.24396 30993 ft 435 kts 224°
2026-05-04 13:44 49.65661 4.18603 30994 ft 442 kts 224°
2026-05-04 13:44 49.60786 4.12829 30993 ft 446 kts 223°
2026-05-04 13:45 49.55840 4.06998 30980 ft 450 kts 225°
2026-05-04 13:45 49.53336 4.04018 30987 ft 461 kts 226°
2026-05-04 13:45 49.50769 4.00936 30995 ft 475 kts 225°
2026-05-04 13:46 49.45445 3.94624 31007 ft 484 kts 223°
2026-05-04 13:46 49.42779 3.91539 30995 ft 473 kts 223°
2026-05-04 13:46 49.40161 3.88545 30990 ft 464 kts 223°
2026-05-04 13:47 49.35028 3.82546 30981 ft 472 kts 225°
2026-05-04 13:47 49.32432 3.79437 30994 ft 487 kts 225°
2026-05-04 13:47 49.29722 3.76201 31002 ft 500 kts 225°
2026-05-04 13:48 49.24174 3.69760 30999 ft 490 kts 223°
2026-05-04 13:48 49.21466 3.66698 30989 ft 477 kts 224°
2026-05-04 13:48 49.18821 3.63700 30984 ft 470 kts 224°
2026-05-04 13:49 49.13613 3.57728 30993 ft 473 kts 224°
2026-05-04 13:49 49.08318 3.51651 30995 ft 476 kts 224°
2026-05-04 13:50 49.03043 3.45683 30991 ft 465 kts 223°
2026-05-04 13:50 48.97869 3.39864 30992 ft 461 kts 223°
2026-05-04 13:51 48.92737 3.34143 30995 ft 458 kts 221°
2026-05-04 13:51 48.87644 3.28495 30992 ft 448 kts 221°
2026-05-04 13:52 48.83585 3.21697 30990 ft 431 kts 245°
2026-05-04 13:52 48.82738 3.17365 30992 ft 430 kts 261°
2026-05-04 13:52 48.82798 3.12821 30993 ft 435 kts 276°
2026-05-04 13:53 48.83771 3.08439 30993 ft 444 kts 291°
2026-05-04 13:53 48.85592 3.04583 30993 ft 458 kts 307°
2026-05-04 13:53 48.88108 3.01600 30994 ft 474 kts 323°
2026-05-04 13:54 48.94666 2.99050 30994 ft 507 kts 354°
2026-05-04 13:54 48.98212 2.99820 30994 ft 522 kts
2026-05-04 13:54 49.04562 3.05335 30995 ft 542 kts 40°
2026-05-04 13:55 49.06969 3.09809 30995 ft 547 kts 56°
2026-05-04 13:55 49.12453 3.25025 30996 ft 545 kts 45°
2026-05-04 13:56 49.17960 3.32729 31005 ft 535 kts 35°
2026-05-04 13:56 49.22941 3.41072 30986 ft 529 kts 48°
2026-05-04 13:57 49.25118 3.45622 30988 ft 530 kts 50°
2026-05-04 13:58 49.33865 3.63822 30996 ft 521 kts 45°
2026-05-04 13:58 49.40695 3.76551 30991 ft 513 kts 44°
2026-05-04 13:59 49.45190 3.85034 30994 ft 516 kts 45°
2026-05-04 14:00 49.51898 3.98042 30995 ft 519 kts 45°
2026-05-04 14:00 49.56307 4.06705 30994 ft 504 kts 45°
2026-05-04 14:00 49.58459 4.10948 30978 ft 499 kts 47°
2026-05-04 14:01 49.62684 4.19178 30804 ft 471 kts 46°
2026-05-04 14:01 49.66718 4.26941 30316 ft 467 kts 45°
2026-05-04 14:02 49.68775 4.30888 30071 ft 477 kts 46°
2026-05-04 14:02 49.70855 4.34926 29847 ft 482 kts 45°
2026-05-04 14:02 49.72899 4.38951 29598 ft 481 kts 46°
2026-05-04 14:02 49.74961 4.43030 29344 ft 481 kts 49°
2026-05-04 14:03 49.77018 4.47130 29104 ft 484 kts 50°
2026-05-04 14:03 49.81153 4.55422 28992 ft 489 kts 50°
2026-05-04 14:04 49.87655 4.67787 28996 ft 494 kts 45°
2026-05-04 14:04 49.92615 4.75208 28848 ft 497 kts 42°
2026-05-04 14:05 49.97622 4.82458 28512 ft 493 kts 45°
2026-05-04 14:05 50.00065 4.86174 28337 ft 489 kts 46°
2026-05-04 14:05 50.02448 4.89928 28162 ft 485 kts 47°
2026-05-04 14:06 50.04789 4.93686 27987 ft 482 kts 48°
2026-05-04 14:06 50.07101 4.97429 27812 ft 478 kts 48°
2026-05-04 14:06 50.09402 5.01147 27636 ft 475 kts 48°
2026-05-04 14:06 50.11688 5.04838 27460 ft 472 kts 48°
2026-05-04 14:07 50.13970 5.08499 27284 ft 469 kts 47°
2026-05-04 14:07 50.16264 5.12135 27108 ft 467 kts 47°
2026-05-04 14:07 50.18540 5.15732 26932 ft 465 kts 47°
2026-05-04 14:07 50.20772 5.19296 26757 ft 464 kts 48°
2026-05-04 14:08 50.23020 5.22907 26581 ft 463 kts 48°
2026-05-04 14:08 50.25259 5.26514 26409 ft 462 kts 48°
2026-05-04 14:08 50.27457 5.30061 26277 ft 440 kts 48°
2026-05-04 14:08 50.29536 5.33409 26004 ft 417 kts 48°
2026-05-04 14:09 50.33428 5.39672 25053 ft 389 kts 48°
2026-05-04 14:09 50.35302 5.42685 24385 ft 382 kts 48°
2026-05-04 14:10 50.38962 5.48586 22709 ft 380 kts 48°
2026-05-04 14:10 50.40827 5.51614 21686 ft 382 kts 48°
2026-05-04 14:10 50.42648 5.54555 21031 ft 374 kts 47°
2026-05-04 14:10 50.44441 5.57429 20647 ft 362 kts 47°
2026-05-04 14:11 50.46184 5.60249 20270 ft 358 kts 47°
2026-05-04 14:11 50.49676 5.65924 19524 ft 365 kts 47°
2026-05-04 14:11 50.51425 5.68776 19155 ft 367 kts 47°
2026-05-04 14:12 50.53198 5.71671 18782 ft 368 kts 47°
2026-05-04 14:12 50.54971 5.74574 18407 ft 367 kts 47°
2026-05-04 14:12 50.58489 5.80361 17657 ft 364 kts 47°
2026-05-04 14:13 50.60236 5.83237 17281 ft 362 kts 47°
2026-05-04 14:13 50.61983 5.86077 16905 ft 359 kts 46°
2026-05-04 14:13 50.63697 5.88867 16534 ft 356 kts 46°
2026-05-04 14:13 50.65435 5.91701 16154 ft 354 kts 46°
2026-05-04 14:14 50.67124 5.94498 15778 ft 351 kts 47°
2026-05-04 14:14 50.70461 5.99991 15032 ft 345 kts 44°
2026-05-04 14:14 50.72109 6.02711 14655 ft 341 kts 45°
2026-05-04 14:15 50.75359 6.08102 13903 ft 335 kts 45°
2026-05-04 14:15 50.78525 6.13398 13153 ft 330 kts 45°
2026-05-04 14:16 50.81671 6.18643 12402 ft 326 kts 45°
2026-05-04 14:16 50.83232 6.21245 12122 ft 324 kts 45°
2026-05-04 14:17 50.86376 6.26477 12001 ft 334 kts 45°
2026-05-04 14:17 50.87993 6.29166 11996 ft 338 kts 45°
2026-05-04 14:17 50.91239 6.34567 11994 ft 342 kts 45°
2026-05-04 14:18 50.92878 6.37302 11994 ft 342 kts 45°
2026-05-04 14:18 50.96163 6.42797 11993 ft 343 kts 45°
2026-05-04 14:19 50.99449 6.48307 11993 ft 343 kts 45°
2026-05-04 14:19 51.01092 6.51071 11970 ft 344 kts 45°
2026-05-04 14:19 51.02746 6.53855 11729 ft 347 kts 45°
2026-05-04 14:19 51.04379 6.56603 11481 ft 345 kts 45°
2026-05-04 14:20 51.06025 6.59381 11229 ft 344 kts 46°
2026-05-04 14:20 51.07653 6.62172 10979 ft 343 kts 46°
2026-05-04 14:20 51.09361 6.64806 10725 ft 341 kts 39°
2026-05-04 14:21 51.13222 6.69152 10235 ft 339 kts 32°
2026-05-04 14:21 51.15211 6.71069 10083 ft 336 kts 26°
2026-05-04 14:21 51.17336 6.72606 10017 ft 334 kts 22°
2026-05-04 14:21 51.19450 6.74019 9992 ft 323 kts 21°
2026-05-04 14:22 51.21486 6.75343 9986 ft 309 kts 21°
2026-05-04 14:22 51.23455 6.76611 9970 ft 301 kts 20°
2026-05-04 14:22 51.25402 6.77861 9606 ft 306 kts 20°
2026-05-04 14:22 51.27379 6.79126 9230 ft 304 kts 20°
2026-05-04 14:23 51.31266 6.81609 8476 ft 297 kts 20°
2026-05-04 14:23 51.32535 6.82418 8226 ft 294 kts 20°
2026-05-04 14:23 51.35049 6.84020 7725 ft 291 kts 20°
2026-05-04 14:24 51.36316 6.84825 7471 ft 289 kts 20°
2026-05-04 14:24 51.38777 6.86392 6973 ft 286 kts 21°
2026-05-04 14:24 51.39934 6.87396 6709 ft 285 kts 34°
2026-05-04 14:24 51.41395 6.89479 6324 ft 278 kts 45°
2026-05-04 14:25 51.42691 6.91769 5823 ft 276 kts 49°
2026-05-04 14:25 51.44794 6.96781 4826 ft 270 kts 68°
2026-05-04 14:25 51.45450 6.99572 4398 ft 265 kts 70°
2026-05-04 14:26 51.45928 7.02372 4020 ft 257 kts 86°
2026-05-04 14:26 51.45600 7.05070 3768 ft 242 kts 117°
2026-05-04 14:26 51.44517 7.06994 3510 ft 228 kts 149°
2026-05-04 14:26 51.43067 7.07601 3336 ft 210 kts 183°
2026-05-04 14:27 51.41772 7.06814 3154 ft 201 kts 219°
2026-05-04 14:27 51.41029 7.04965 3053 ft 198 kts 250°
2026-05-04 14:27 51.40714 7.02821 3023 ft 200 kts 259°
2026-05-04 14:27 51.40381 7.00663 3003 ft 199 kts 246°
2026-05-04 14:28 51.39498 6.98986 3019 ft 196 kts 223°
2026-05-04 14:28 51.38511 6.97455 2997 ft 197 kts 227°
2026-05-04 14:28 51.37659 6.95740 2840 ft 202 kts 234°
2026-05-04 14:28 51.36854 6.93910 2557 ft 195 kts 236°
2026-05-04 14:29 51.35339 6.90739 2010 ft 164 kts 234°
2026-05-04 14:29 51.34017 6.87971 1632 ft 155 kts 235°
2026-05-04 14:30 51.33374 6.86615 1439 ft 154 kts 235°
2026-05-04 14:30 51.32727 6.85239 1246 ft 154 kts 235°
2026-05-04 14:30 51.31436 6.82490 868 ft 154 kts 234°
2026-05-04 14:31 51.30789 6.81132 678 ft 155 kts 234°
2026-05-04 14:31 51.29482 6.78400 225 ft 154 kts 234°
2026-05-04 14:32 51.28488 6.76297 159 ft 59 kts 231°
2026-05-04 14:32 51.28308 6.75924 159 ft 34 kts 233°
2026-05-04 14:32 51.28178 6.75649 159 ft 24 kts 232°
2026-05-04 14:32 51.28098 6.75509 159 ft 14 kts 204°
2026-05-04 14:33 51.28014 6.75509 159 ft 11 kts 158°